Regional Weather Roundup
Issued by NWS

Home | Current Version | Previous Version | Graphics & Text | Print | Product List | Glossary On
Versions: 1 2 3 4 5 6 7 8 9 10 11 12 13 14 15 16 17 18 19 20 21 22 23 24 25 26 27 28 29 30 31 32 33 34 35 36 37 38 39 40 41 42 43 44 45 46 47 48 49 50
000
ASUS45 KBOU 021907
RWRCO

WEATHER ROUNDUP FOR COLORADO
NATIONAL WEATHER SERVICE DENVER/BOULDER CO
100 PM MDT WED SEP 02 2015

NOTE: "FAIR" INDICATES FEW OR NO CLOUDS BELOW 12000 FEET WITH NO
SIGNIFICANT WEATHER AND/OR OBSTRUCTIONS TO VISIBILITY.

COZ001>005-013-030-031-022000-
...NORTHWEST COLORADO...

CITY           SKY/WX    TMP DP  RH WIND       PRES   REMARKS
CRAIG          PTSUNNY   80  44  27 W8        30.17F
HAYDEN         NOT AVBL
MEEKER         CLOUDY    77  48  35 SW10      30.19F
MOUNT WERNER   NOT AVBL
STEAMBOAT SPGS SUNNY     75  43  31 SW6       30.23F
WALDEN         SUNNY     72  36  26 SW12G18   30.31F
$$

COZ006>008-011-022000-
...WEST CENTRAL VALLEYS...

CITY           SKY/WX    TMP DP  RH WIND       PRES   REMARKS
GRAND JUNCTION MOSUNNY   80  49  33 S5        30.11F
MONTROSE       MOSUNNY   81  49  32 VRB3      30.18F
EAGLE          SUNNY     73  45  35 CALM      30.25F
RIFLE          MOSUNNY   77  51  40 CALM      30.16F
DELTA          MOSUNNY   86  46  25 N3        30.14F HAZE
NUCLA          MOSUNNY   81  45  28 NW5       30.22F
$$

COZ017>023-064>068-022000-
...SOUTHWEST COLORADO...

CITY           SKY/WX    TMP DP  RH WIND       PRES   REMARKS
DURANGO        MOSUNNY   79  41  25 MISG      30.26F
CORTEZ         SUNNY     84  46  26 SW15G21   30.20F
PAGOSA SPRINGS PTSUNNY   76  36  23 SW9G16    30.34F
TELLURIDE      PTSUNNY   70  37  29 W15       30.43F
WOLF CREEK PAS NOT AVBL
$$

COZ009-010-012-014-032>034-037-058>063-022000-
...CENTRAL COLORADO...

CITY           SKY/WX    TMP DP  RH WIND       PRES   REMARKS
ASPEN          PTSUNNY   71  44  37 N9        30.32F
BUENA VISTA    MOSUNNY   73  37  26 SW5       30.32F
COPPER MTN     MOSUNNY   59  34  38 W16G22    30.63F
BERTHOUD PASS  PTSUNNY   50  36  57 NW16G25   30.66F
COTTONWOOD PAS MOSUNNY   70  34  26 W3        30.47F
GUNNISON       MOSUNNY   70  45  40 CALM      30.35F
KREMMLING      MOSUNNY   73  43  33 W7        30.30F
LEADVILLE      MOSUNNY   64  37  36 VRB5      30.45F
MONARCH PASS   MOSUNNY   54  32  43 W23G29    30.74S
SALIDA         MOSUNNY   79  33  19 SW9       30.35F
SUNLIGHT       CLOUDY    57  46  67 CALM      30.57S
WILKERSON PASS MOSUNNY   59  36  41 W3        30.60S
$$

COZ069>075-022000-
...SAN LUIS VALLEY/SANGRE DE CRISTO MOUNTAINS...

CITY           SKY/WX    TMP DP  RH WIND       PRES   REMARKS
ALAMOSA        SUNNY     75  40  28 VRB3      30.31F
LA VETA PASS   SUNNY     70  36  28 S8G17     30.50F
SAGUACHE       MOSUNNY   73  46  38 S9        30.34F
$$

COZ035-036-038>040-022000-
...NORTHERN COLORADO FRONT RANGE...

CITY           SKY/WX    TMP DP  RH WIND       PRES   REMARKS
DENVER INTL AP PTSUNNY   89  37  16 NW12G17   30.09F
DMNS CITY PARK   N/A     89  39  17 S7        30.07F
AURORA         PTSUNNY   86  38  17 N7        30.11F
FRONT RANGE AP NOT AVBL
ERIE MUNI ARPT SUNNY     89  34  13 E9        30.05F
BOULDER MUN AP SUNNY     86  37  17 CALM      30.06F
CENTENNIAL     PTSUNNY   86  39  19 N9        30.13F
BROOMFIELD     PTSUNNY   86  39  19 SE3       30.10F
FORT COLLINS   SUNNY     88  46  23 E10       30.04F
LONGMONT       SUNNY     92  39  15 NE6       30.06F
$$

COZ041-046-047-076>085-087-088-022000-
...PIKES PEAK/PALMER DIVIDE AND SOUTHERN FOOTHILLS...

CITY           SKY/WX    TMP DP  RH WIND       PRES   REMARKS
COLO. SPRINGS  MOSUNNY   84  35  17 S5        30.16F
A. F. ACADEMY  MOSUNNY   83  36  18 SE7       30.17F
ELLICOTT       SUNNY    N/A N/A N/A N8G18     30.15F
FALCON         SUNNY     81  34  18 MISG      30.23F
FORT CARSON    SUNNY     85  40  20 VRB3      30.13F
LIMON          MOSUNNY   86  40  19 MISG      30.10F
MONUMENT HILL  SUNNY     79  32  18 W5        30.24S
TRINIDAD       MOSUNNY   90  42  18 E8        30.12F
$$

COZ042>045-048>051-090-091-022000-
...NORTHEAST COLORADO...

CITY           SKY/WX    TMP DP  RH WIND       PRES   REMARKS
GREELEY ARPT   SUNNY     90  45  20 CALM      30.04F
AKRON          MOSUNNY   88  39  17 VRB5      30.03F
BURLINGTON     MOSUNNY   91  47  21 VRB5      30.00F
WRAY           CLOUDY    97  42  15 S6        29.95F
STERLING       NOT AVBL
HOLYOKE        MOSUNNY   93  55  27 CALM      29.96F
FORT MORGAN    MOSUNNY   90  37  15 CALM      30.02F
$$

COZ086-089-092>099-022000-
...SOUTHEAST COLORADO...

CITY           SKY/WX    TMP DP  RH WIND       PRES   REMARKS
PUEBLO         SUNNY     93  42  17 W15G22    30.04F
LA JUNTA       SUNNY     96  42  15 NW15G23   29.99F
LAMAR          SUNNY     93  50  23 MISG      29.95F
SPRINGFIELD      N/A     93  44  18 CALM      30.01F
$$




USA.gov is the U.S. government's official web portal to all federal, state and local government web resources and services.